Погода в Николаевской

Россия / Чеченская Республика     43°31′43″N   45°46′47″E
темп.,
°C
ветер,
м/с
пор.,
м/с
влажн.,
%
обл.,
%
осадки,
мм/ч
давл.,
гПа
погр.,
м
27 июня, пн
пн2700:00+20зсз3789100 1.8 1009224
03:00+19з49894 1.9 1008221
06:00+20зсз59830 0.0 1009361
09:00+26зсз66540 0.0 1008976
12:00+30сз44410 0.0 10081497
15:00+32ссз123634 0.0 10072175
18:00+31зюз223822 0.1 10071459
21:00+24сз33642 0.4 100962
28 июня, вт
вт2800:00+21зсз3680100 2.1 1009133
03:00+20зюз2286100 2.6 100942
06:00+21з238313 0.1 1010131
09:00+27с22490 0.1 10101109
12:00+31ссв55354 0.0 10091993
15:00+30ссв76338 1.1 10091666
18:00+27в354681 0.6 1010407
21:00+23юв224624 0.7 101215
29 июня, ср
ср2900:00+21юз22651 0.0 101218
03:00+19зюз11743 0.0 101215
06:00+21зюз126452 0.0 1013122
09:00+27зсз224088 0.2 1012897
12:00+31ссв222988 0.1 10121968
15:00+32ссв432477 0.1 10112492
18:00+28в6104667 0.1 1011687
21:00+23в5967100 0.1 1013444
30 июня, чт
чт3000:00+20в4982100 0.0 1014344
03:00+18в37915 0.0 1013216
06:00+20в48781 0.0 1014420
09:00+27в66290 0.0 10131195
12:00+30всв66240 0.0 10112099
15:00+31в65230 0.0 10102504
18:00+28вюв77285 0.0 10121174
21:00+22вюв6104120 0.0 1013366
1 июля, пт
пт100:00+19в345186 0.0 101370
03:00+19всв235079 0.0 101290
06:00+20в354599 0.0 1013268
09:00+23всв4536100 0.0 1013647
12:00+27св552994 0.0 10131490
15:00+27ссв442699 0.0 10131306
18:00+25ссв2332100 0.0 1014132
21:00+22св0135100 0.0 101520